Weather in Yaminskiy

Russia / Volgograd Oblast     50°19′56″N   42°12′58″E
temp.,
°C
wind,
m/s
gust,
m/s
humid.,
%
clouds,
%
prec.,
mm/h
press.,
hPa
HPBL,
m
27 july, tue
tue2700:00+18ene35460 0.0 102273
03:00+17e22520 0.0 102218
06:00+18ene12530 0.0 102260
09:00+26e23310 0.0 1021847
12:00+29ne34270 0.0 10202465
15:00+31nne342579 0.0 10183153
18:00+30n332889 0.0 10181776
21:00+24n234283 0.1 101959
28 july, wed
wed2800:00+20ene22610 0.1 101812
03:00+18n22676 0.1 101813
06:00+19n11663 0.0 101859
09:00+26nnw224111 0.0 1018637
12:00+31nnw12294 0.0 10162324
15:00+32nw132546 0.0 10153070
18:00+31nnw332868 0.0 10141246
21:00+26ese343692 0.0 101467
29 july, thu
thu2900:00+23s344376 0.0 101359
03:00+22ssw354591 0.0 101280
06:00+23wsw394340 0.0 1012198
09:00+29wsw7113812 0.0 10111538
12:00+33wsw8103197 0.0 10102890
15:00+31wnw8103935 0.0 10091991
18:00+31w4838100 0.1 10091664
21:00+27sw2349100 0.1 100952
30 july, fri
fri3000:00+23wsw22611 0.1 100911
03:00+22w236498 0.1 100929
06:00+23wsw266333 0.0 1009245
09:00+29wsw4545100 0.0 1009939
12:00+32sw563690 0.0 10091762
15:00+34wsw6631100 0.0 10072889
18:00+26n23588 1.4 100743
21:00+22sse368078 2.0 1009120
31 july, sat
sat3100:00+22wsw3583100 0.4 100988
03:00+21sw228697 0.4 100826
06:00+22s22784 0.1 100979
09:00+28ssw34530 0.1 1009679
12:00+33wsw453523 0.0 10082761
15:00+34wnw463091 0.0 10072556
18:00+32wnw343537 0.0 10071708
21:00+26w224224 0.0 100915